YN1ZGS-13 Weather Reports


time (UTC)temp
C
wind
direction
speed
KPH
gust
KPH
rain 1hr
cm
rain 24hr
cm
rain mn
cm
humidity
%
barometer
mb
20260502232958 31 130 25.7 0.0 0.00 0.00 0.00 46 1007.0
20260502231957 32 110 20.9 0.0 0.00 0.00 0.00 41 1007.0
20260502230957 33 110 20.9 0.0 0.00 0.00 0.00 41 1007.0
20260502225956 33 110 20.9 0.0 0.00 0.00 0.00 41 1007.0
20260502224956 34 110 20.9 0.0 0.00 0.00 0.00 41 1007.0
20260502223956 34 110 20.9 0.0 0.00 0.00 0.00 41 1007.0
20260502222955 35 110 20.9 0.0 0.00 0.00 0.00 41 1006.0
20260502221955 32 111 6.4 12.9 0.00 0.00 0.00 41 1006.0
20260502220955 32 120 24.1 0.0 0.00 0.00 0.00 41 1006.0
20260502215954 33 120 24.1 0.0 0.00 0.00 0.00 41 1006.0
20260502214954 33 120 24.1 0.0 0.00 0.00 0.00 41 1006.0
20260502213954 33 120 25.7 0.0 0.00 0.00 0.00 40 1006.0
20260502212954 33 120 24.1 0.0 0.00 0.00 0.00 41 1007.0
20260502211953 33 120 25.7 0.0 0.00 0.00 0.00 40 1007.0
20260502210953 33 120 17.7 0.0 0.00 0.00 0.00 41 1007.0
20260502205953 33 120 17.7 0.0 0.00 0.00 0.00 41 1007.0
20260502204952 33 120 17.7 0.0 0.00 0.00 0.00 41 1007.0
20260502203952 33 120 17.7 0.0 0.00 0.00 0.00 41 1007.0
20260502202952 34 120 17.7 0.0 0.00 0.00 0.00 41 1008.0
20260502201951 34 80 6.4 0.0 0.00 0.00 0.00 41 1008.0
20260502200951 34 80 6.4 0.0 0.00 0.00 0.00 41 1008.0
20260502195951 34 80 6.4 0.0 0.00 0.00 0.00 41 1008.0
20260502194950 34 80 6.4 0.0 0.00 0.00 0.00 41 1008.0
20260502193950 35 80 6.4 0.0 0.00 0.00 0.00 41 1008.0
20260502192950 31 100 8.0 0.0 0.00 0.00 0.00 45 1009.0
20260502191949 32 100 8.0 0.0 0.00 0.00 0.00 45 1009.0
20260502190949 32 100 8.0 0.0 0.00 0.00 0.00 45 1009.0
20260502185949 33 100 9.7 0.0 0.00 0.00 0.00 44 1009.0
20260502184949 33 100 9.7 0.0 0.00 0.00 0.00 44 1009.0
20260502183948 33 100 9.7 0.0 0.00 0.00 0.00 43 1009.0
20260502182948 30 50 6.4 0.0 0.00 0.00 0.00 50 1010.0
20260502181947 31 50 6.4 0.0 0.00 0.00 0.00 50 1010.0
20260502180947 31 50 6.4 0.0 0.00 0.00 0.00 50 1010.0
20260502163944 31 30 6.4 0.0 0.00 0.00 0.00 55 1011.0
20260502162944 32 30 6.4 0.0 0.00 0.00 0.00 56 1012.0
20260502161943 28 70 8.0 0.0 0.00 0.00 0.00 63 1012.0
20260502160943 29 70 8.0 0.0 0.00 0.00 0.00 62 1012.0
20260502151941 28 81 9.7 11.3 0.00 0.00 0.00 70 1012.0
20260502150941 27 90 12.9 0.0 0.00 0.00 0.00 70 1012.0
20260502122937 25 120 6.4 0.0 0.00 0.00 0.00 84 1011.0
20260502121936 25 120 6.4 0.0 0.00 0.00 0.00 84 1011.0
20260502120936 23 108 8.0 12.9 0.00 0.00 0.00 88 1011.0
20260502114935 24 108 8.0 12.9 0.00 0.00 0.00 88 1011.0
20260502113935 24 108 8.0 12.9 0.00 0.00 0.00 88 1011.0
20260502112935 24 108 8.0 12.9 0.00 0.00 0.00 88 1010.0
20260502111934 24 108 8.0 12.9 0.00 0.00 0.00 88 1010.0
20260502110934 24 108 8.0 12.9 0.00 0.00 0.00 88 1010.0
20260502105934 24 108 8.0 12.9 0.00 0.00 0.00 88 1010.0
20260502104934 24 108 8.0 12.9 0.00 0.00 0.00 88 1010.0
20260502103933 24 108 8.0 12.9 0.00 0.00 0.00 88 1010.0
20260502102933 25 108 9.7 14.5 0.00 0.00 0.00 87 1010.0
20260502101932 23 80 6.4 0.0 0.00 0.00 0.00 88 1010.0
20260502100932 24 80 6.4 0.0 0.00 0.00 0.00 88 1010.0
20260502090931 24 90 6.4 0.0 0.00 0.00 0.00 84 1010.0
20260502070927 26 120 12.9 0.0 0.00 0.00 0.00 81 1010.0
20260502065926 26 120 14.5 0.0 0.00 0.00 0.00 81 1010.0
20260502064926 26 120 14.5 0.0 0.00 0.00 0.00 80 1010.0
20260502063926 27 120 14.5 0.0 0.00 0.00 0.00 79 1010.0
20260502062925 25 118 11.3 20.9 0.00 0.00 0.00 79 1010.0
20260502061925 25 118 11.3 20.9 0.00 0.00 0.00 79 1010.0
20260502060924 25 118 11.3 20.9 0.00 0.00 0.00 79 1010.0
20260502055924 26 118 11.3 20.9 0.00 0.00 0.00 79 1010.0
20260502054924 26 118 11.3 20.9 0.00 0.00 0.00 78 1010.0
20260502053924 26 118 11.3 20.9 0.00 0.00 0.00 76 1011.0
20260502052923 25 113 14.5 25.7 0.00 0.00 0.00 77 1011.0
20260502051923 25 113 14.5 25.7 0.00 0.00 0.00 77 1011.0
20260502050923 25 140 12.9 0.0 0.00 0.00 0.00 77 1011.0
20260502045923 26 140 14.5 0.0 0.00 0.00 0.00 77 1011.0
20260502044922 26 140 14.5 0.0 0.00 0.00 0.00 77 1011.0
20260502043922 26 140 14.5 0.0 0.00 0.00 0.00 76 1011.0
20260502042922 27 140 14.5 0.0 0.00 0.00 0.00 75 1010.0
20260502041921 27 140 14.5 0.0 0.00 0.00 0.00 75 1010.0
20260502040921 26 100 11.3 24.1 0.00 0.00 0.00 73 1010.0
20260502035921 26 140 14.5 0.0 0.00 0.00 0.00 74 1010.0
20260502034921 27 140 14.5 0.0 0.00 0.00 0.00 74 1010.0
20260502033920 27 140 14.5 0.0 0.00 0.00 0.00 74 1010.0
20260502032920 26 140 14.5 0.0 0.00 0.00 0.00 74 1010.0
20260502031919 27 140 14.5 0.0 0.00 0.00 0.00 74 1010.0
20260502030919 27 140 6.4 0.0 0.00 0.00 0.00 74 1010.0
20260502025919 27 140 6.4 0.0 0.00 0.00 0.00 74 1010.0
20260502024918 27 140 6.4 0.0 0.00 0.00 0.00 75 1010.0
20260502023918 27 140 6.4 0.0 0.00 0.00 0.00 76 1010.0
20260502022918 27 140 6.4 0.0 0.00 0.00 0.00 76 1009.0
20260502021917 27 140 6.4 0.0 0.00 0.00 0.00 76 1009.0
20260502020917 27 144 8.0 19.3 0.00 0.00 0.00 75 1009.0
20260502015917 27 200 14.5 0.0 0.00 0.00 0.00 77 1009.0
20260502014916 28 200 14.5 0.0 0.00 0.00 0.00 76 1009.0
20260502013916 27 200 14.5 0.0 0.00 0.00 0.00 76 1008.0
20260502012915 28 200 14.5 0.0 0.00 0.00 0.00 74 1007.0
20260502011915 28 200 14.5 0.0 0.00 0.00 0.00 74 1007.0
20260502010915 28 140 17.7 0.0 0.00 0.00 0.00 70 1007.0
20260502005915 28 140 17.7 0.0 0.00 0.00 0.00 70 1007.0
20260502004915 29 140 17.7 0.0 0.00 0.00 0.00 70 1007.0
20260502003914 29 140 17.7 0.0 0.00 0.00 0.00 70 1007.0
20260502002914 29 140 17.7 0.0 0.00 0.00 0.00 69 1007.0
20260502001913 29 140 17.7 0.0 0.00 0.00 0.00 65 1007.0
20260502000913 29 129 8.0 14.5 0.00 0.00 0.00 62 1007.0
20260501235913 29 100 17.7 0.0 0.00 0.00 0.00 65 1007.0
20260501234912 29 100 17.7 0.0 0.00 0.00 0.00 64 1007.0